Home   Weather   Cedar Rapids   Past weeks

Flag for USA Past Weather in Cedar Rapids, Iowa, USA — Yesterday and Last 2 Weeks

Now
76 °F

Sunny.


Feels Like: 76 °F
Forecast: 60 / 78 °F
Wind: 6 mph from Northwest

Location: Cedar Rapids Municipal Airport

Current Time: Aug 30, 2016 at 7:31:40 PM

Latest Report: Aug 30, 2016 at 6:52 PM


Visibility: 10 mi

Pressure: 30.06 "Hg

Humidity: 91%

Dew Point: 73 °F

Location of Cedar RapidsLocation

Past Weather in Cedar Rapids — Graph

°F

Cedar Rapids Temperature Yesterday

Maximum temperature yesterday: 85 °F (at 2:52 PM)
Minimum temperature yesterday: 67 °F (at 1:52 AM)
Average temperature yesterday: 73 °F

High & Low Weather Summary for the Past Weeks

 TemperatureHumidityPressure
High88 °F (Aug 18, 2:52 PM)100% (Aug 15, 10:52 PM)30.23 "Hg (Aug 15, 10:52 PM)
Low52 °F (Aug 22, 5:52 AM)52% (Aug 21, 3:52 PM)29.66 "Hg (Aug 20, 5:52 AM)
Average72 °F88%30.01 "Hg
* Reported Aug 15 5:52 PM — Aug 30 5:52 PM, Cedar Rapids, Weather by CustomWeather, © 2016

Note: Actual official high and low records may vary slightly from our data, if they occured in-between our weather recording intervals... More about our weather records

Advertising

Cedar Rapids Weather History for the Previous 24 Hours

Scroll right to see more
 ConditionsComfort  
Time TempWeatherWind HumidityBarometerVisibility
5:52 PM
Tue, Aug 30
76 °FLight rain. Broken clouds.5 mph88%30.07 "Hg10 mi
4:52 PM78 °FLight rain. Scattered clouds.10 mph76%30.07 "Hg10 mi
3:52 PM83 °FPassing clouds.13 mph74%30.07 "Hg10 mi
2:52 PM82 °FScattered clouds.8 mph74%30.09 "Hg10 mi
1:52 PM82 °FPartly sunny.3 mph77%30.11 "Hg10 mi
12:52 PM81 °FPassing clouds.5 mph77%30.13 "Hg10 mi
11:52 AM78 °FSunny.7 mph87%30.13 "Hg8 mi
10:52 AM77 °FFog.6 mph88%30.13 "Hg6 mi
9:52 AM75 °FFog.No wind96%30.13 "Hg5 mi
8:52 AM74 °FFog.3 mph100%30.14 "Hg5 mi
7:52 AM71 °FFog.No wind100%30.14 "Hg4 mi
6:52 AM70 °FFog.No wind100%30.15 "Hg3 mi
5:52 AM69 °FFog.No wind100%30.14 "Hg3 mi
4:59 AM70 °FFog.No wind100%30.15 "Hg2 mi
3:52 AM70 °FFog.5 mph100%30.14 "Hg4 mi
2:52 AM70 °FFog.No wind100%30.16 "Hg4 mi
1:52 AM70 °FPassing clouds.5 mph100%30.15 "Hg8 mi
12:52 AM71 °FClear.3 mph100%30.16 "Hg9 mi
11:52 PM
Mon, Aug 29
70 °FFog.3 mph100%30.16 "Hg6 mi
10:52 PM72 °FPassing clouds.No wind100%30.16 "Hg8 mi
9:52 PM73 °FLight rain. Passing clouds.No wind100%30.16 "Hg10 mi
8:52 PM72 °FLight rain. Passing clouds.3 mph100%30.16 "Hg8 mi
7:52 PM73 °FSunny.No wind94%30.14 "Hg10 mi
Weather by CustomWeather, © 2016

See weather overviewHow to use our weather pages